User: anonymous   Login
Location: Theydon Bois
(51.6750°N, 0.1050°E)
Time: 08:40:17
(UTC+01:00)
Language:

BREEZE-M DEB (TANK) - Orbit

View from above orbital plane
View from above orbital plane
View from above satellite
View from above satellite

Ground track
Ground track

The orbit data is extracted from the following two-line orbital elements,

1 33374U 08044B   18167.89054115 -.00000043 +00000-0 +34732-4 0  9993
2 33374 049.5071 027.5890 5435986 303.6510 015.7540 04.87341252171778
Epoch (UTC): 16 June 2018 21:22:22
Eccentricity: 0.5435986
inclination: 49.5071°
perigee height: 329 km
apogee height: 16305 km
right ascension of ascending node: 27.5890°
argument of perigee: 303.6510°
revolutions per day: 4.87341252
mean anomaly at epoch: 15.7540°
orbit number at epoch: 17177

The dashed part of the orbit path shows where the satellite is in the earth's shadow,  

DLR